Weather History for Inverness, FL

Change the Weather History Date:

Wednesday, July 31, 2013

  Actual Average (KOCF) Record (KOCF)
Temperature  
Mean Temperature 81 °F -  
Max Temperature 91 °F 88 °F 98 °F (1999)
Min Temperature 71 °F 70 °F 68 °F (2014)
Cooling Degree Days 16    
Growing Degree Days 31 (Base 50)    
Moisture  
Dew Point 72 °F    
Average Humidity 82    
Maximum Humidity 100    
Minimum Humidity 46    
Precipitation  
Precipitation 0.08 in - - ()
Sea Level Pressure  
Sea Level Pressure 30.10 in    
Wind  
Wind Speed 1 mph (SSE)    
Max Wind Speed 7 mph    
Max Gust Speed -    
Visibility 9 miles    
Events Rain , Thunderstorm    
Averages and records for this station are not official NWS values.
T = Trace of Precipitation, MM = Missing Value Source: NWS Daily Summary

Daily Weather History Graph

Daily Weather History Graph

Search for Another Location

Airport:

Trip Planner

Search our weather history database for the weather conditions in past years. The results will help you decide how hot, cold, wet, or windy it might be!

Date:

Astronomy

Jul. 31, 2013 Rise Set
Actual Time 6:50 AM EDT 8:20 PM EDT
Civil Twilight 6:24 AM EDT 8:46 PM EDT
Nautical Twilight 5:53 AM EDT 9:17 PM EDT
Astronomical Twilight 5:21 AM EDT 9:48 PM EDT
Moon 1:44 AM EDT (7/31) 3:34 PM EDT (7/31)
Length of Visible Light 14h 22m
Length of Day
13h 30m
Waning Crescent, 32% of the Moon is Illuminated
Jul 31
Waning Crescent
Aug 6
New
Aug 14
First Quarter
Aug 20
Full
Aug 28
Last Quarter

Hourly Weather History & Observations

Time (EDT) Temp. Heat Index Dew Point Humidity Pressure Visibility Wind Dir Wind Speed Gust Speed Precip Events Conditions
12:15 AM 77.0 °F - 71.6 °F 83% 30.16 in 7.0 mi Calm Calm - N/A   Mostly Cloudy
12:35 AM 77.0 °F - 71.6 °F 83% 30.15 in 10.0 mi Calm Calm - N/A   Mostly Cloudy
12:55 AM 75.2 °F - 71.6 °F 89% 30.15 in 10.0 mi Calm Calm - N/A   Clear
1:15 AM 75.2 °F - 71.6 °F 89% 30.15 in 10.0 mi Calm Calm - N/A   Clear
1:35 AM 73.4 °F - 71.6 °F 94% 30.14 in 7.0 mi Calm Calm - N/A   Clear
1:55 AM 73.4 °F - 71.6 °F 94% 30.12 in 10.0 mi Calm Calm - N/A   Clear
2:15 AM 73.4 °F - 71.6 °F 94% 30.12 in 7.0 mi Calm Calm - N/A   Clear
2:35 AM 73.4 °F - 71.6 °F 94% 30.11 in 10.0 mi Calm Calm - N/A   Clear
2:55 AM 73.4 °F - 71.6 °F 94% 30.10 in 10.0 mi Calm Calm - N/A   Clear
3:15 AM 73.4 °F - 71.6 °F 94% 30.10 in 10.0 mi Calm Calm - N/A   Clear
3:35 AM 73.4 °F - 71.6 °F 94% 30.10 in 10.0 mi Calm Calm - N/A   Clear
3:55 AM 71.6 °F - 71.6 °F 100% 30.10 in 10.0 mi Calm Calm - N/A   Clear
4:15 AM 71.6 °F - 71.6 °F 100% 30.10 in 10.0 mi Calm Calm - N/A   Clear
4:35 AM 71.6 °F - 71.6 °F 100% 30.09 in 10.0 mi Calm Calm - N/A   Clear
4:55 AM 71.6 °F - 71.6 °F 100% 30.09 in 10.0 mi Calm Calm - N/A   Clear
5:15 AM 71.6 °F - 71.6 °F 100% 30.09 in 7.0 mi Calm Calm - N/A   Clear
5:35 AM 71.6 °F - 71.6 °F 100% 30.10 in 10.0 mi Calm Calm - N/A   Clear
5:55 AM 71.6 °F - 71.6 °F 100% 30.10 in 10.0 mi Calm Calm - N/A   Clear
6:15 AM 71.6 °F - 71.6 °F 100% 30.11 in 10.0 mi Calm Calm - N/A   Clear
6:35 AM 71.6 °F - 71.6 °F 100% 30.11 in 10.0 mi Calm Calm - N/A   Clear
6:55 AM 71.6 °F - 71.6 °F 100% 30.12 in 7.0 mi Calm Calm - N/A   Clear
7:15 AM 71.6 °F - 71.6 °F 100% 30.12 in 7.0 mi Calm Calm - N/A   Clear
7:35 AM 73.4 °F - 71.6 °F 94% 30.12 in 10.0 mi Calm Calm - N/A   Clear
7:55 AM 73.4 °F - 73.4 °F 100% 30.13 in 10.0 mi Calm Calm - N/A   Clear
8:15 AM 77.0 °F - 73.4 °F 89% 30.13 in 10.0 mi Calm Calm - N/A   Clear
8:35 AM 77.0 °F - 71.6 °F 83% 30.14 in 10.0 mi Calm Calm - N/A   Clear
8:55 AM 78.8 °F - 73.4 °F 83% 30.14 in 10.0 mi Calm Calm - N/A   Clear
9:15 AM 82.4 °F 89.5 °F 75.2 °F 79% 30.14 in 7.0 mi Calm Calm - N/A   Clear
9:35 AM 82.4 °F 88.2 °F 73.4 °F 74% 30.14 in 7.0 mi Calm Calm - N/A   Clear
9:55 AM 82.4 °F 88.2 °F 73.4 °F 74% 30.15 in 7.0 mi SSE 3.5 mph - N/A   Scattered Clouds
10:15 AM 86.0 °F 95.1 °F 75.2 °F 70% 30.15 in 7.0 mi SE 3.5 mph - N/A   Scattered Clouds
10:35 AM 84.2 °F 90.9 °F 73.4 °F 70% 30.15 in 7.0 mi Calm Calm - N/A   Scattered Clouds
10:55 AM 84.2 °F 90.9 °F 73.4 °F 70% 30.15 in 7.0 mi SSW 3.5 mph - N/A   Scattered Clouds
11:35 AM 86.0 °F 93.4 °F 73.4 °F 66% 30.14 in 7.0 mi Calm Calm - N/A   Mostly Cloudy
11:55 AM 87.8 °F 95.6 °F 73.4 °F 62% 30.14 in 7.0 mi Calm Calm - N/A   Mostly Cloudy
12:15 PM 89.6 °F 96.2 °F 71.6 °F 55% 30.14 in 7.0 mi Calm Calm - N/A   Scattered Clouds
12:35 PM 89.6 °F 94.7 °F 69.8 °F 52% 30.13 in 7.0 mi South 3.5 mph - N/A   Clear
12:55 PM 89.6 °F 96.2 °F 71.6 °F 55% 30.11 in 7.0 mi South 3.5 mph - N/A   Scattered Clouds
1:15 PM 89.6 °F 96.2 °F 71.6 °F 55% 30.11 in 7.0 mi SSE 4.6 mph - N/A   Mostly Cloudy
1:35 PM 91.4 °F 98.4 °F 71.6 °F 52% 30.10 in 7.0 mi ESE 4.6 mph - N/A   Scattered Clouds
1:55 PM 91.4 °F 98.4 °F 71.6 °F 52% 30.09 in 10.0 mi Calm Calm - N/A   Unknown
2:15 PM 91.4 °F 98.4 °F 71.6 °F 52% 30.08 in 7.0 mi Calm Calm - N/A   Scattered Clouds
2:35 PM 91.4 °F 96.8 °F 69.8 °F 49% 30.06 in 7.0 mi ESE 6.9 mph - N/A   Scattered Clouds
2:55 PM 91.4 °F 98.4 °F 71.6 °F 52% 30.06 in 7.0 mi East 6.9 mph - N/A   Scattered Clouds
3:15 PM 91.4 °F 96.8 °F 69.8 °F 49% 30.05 in 7.0 mi Calm Calm - N/A   Scattered Clouds
3:35 PM 91.4 °F 95.4 °F 68.0 °F 46% 30.03 in 7.0 mi SSE 6.9 mph - N/A   Clear
3:55 PM 89.6 °F 94.7 °F 69.8 °F 52% 30.03 in 7.0 mi SSW 3.5 mph - N/A   Scattered Clouds
4:15 PM 84.2 °F 90.9 °F 73.4 °F 70% 30.04 in 7.0 mi West 3.5 mph - N/A Thunderstorm Mostly Cloudy
4:35 PM 80.6 °F 84.6 °F 71.6 °F 74% 30.06 in 10.0 mi Calm Calm - N/A Rain , Thunderstorm Thunderstorms and Rain
4:55 PM 75.2 °F - 73.4 °F 94% 30.04 in 4.0 mi West 3.5 mph - 0.08 in Rain , Thunderstorm Light Thunderstorms and Rain
5:15 PM 77.0 °F - 73.4 °F 89% 30.05 in 10.0 mi NW 3.5 mph - N/A Thunderstorm Thunderstorm
5:35 PM 77.0 °F - 73.4 °F 89% 30.05 in 10.0 mi NW 3.5 mph - N/A   Clear
5:55 PM 77.0 °F - 73.4 °F 89% 30.03 in 7.0 mi Calm Calm - N/A   Clear
6:15 PM 77.0 °F - 73.4 °F 89% 30.03 in 10.0 mi Calm Calm - N/A   Clear
6:35 PM 77.0 °F - 73.4 °F 89% 30.04 in 10.0 mi Calm Calm - N/A   Clear
6:55 PM 78.8 °F - 73.4 °F 83% 30.05 in 10.0 mi Calm Calm - N/A   Scattered Clouds
7:15 PM 77.0 °F - 73.4 °F 89% 30.06 in 10.0 mi North 5.8 mph - N/A Thunderstorm Scattered Clouds
7:35 PM 77.0 °F - 73.4 °F 89% 30.05 in 10.0 mi North 3.5 mph - N/A Thunderstorm Clear
7:55 PM 77.0 °F - 71.6 °F 83% 30.05 in 10.0 mi Calm Calm - N/A Thunderstorm Clear
8:15 PM 75.2 °F - 73.4 °F 94% 30.07 in 7.0 mi Calm Calm - N/A Thunderstorm Scattered Clouds
8:35 PM 78.8 °F - 71.6 °F 78% 30.07 in 10.0 mi Calm Calm - N/A   Overcast
8:55 PM 78.8 °F - 71.6 °F 78% 30.08 in 10.0 mi Calm Calm - N/A   Overcast
9:15 PM 77.0 °F - 69.8 °F 78% 30.08 in 10.0 mi Calm Calm - N/A Thunderstorm Scattered Clouds
9:35 PM 77.0 °F - 71.6 °F 83% 30.07 in 10.0 mi ENE 3.5 mph - N/A   Clear
9:55 PM 77.0 °F - 69.8 °F 78% 30.09 in 10.0 mi Calm Calm - N/A   Scattered Clouds
10:15 PM 75.2 °F - 69.8 °F 83% 30.09 in 10.0 mi East 3.5 mph - N/A   Scattered Clouds
10:35 PM 75.2 °F - 69.8 °F 83% 30.09 in 10.0 mi Calm Calm - N/A Thunderstorm Scattered Clouds
10:55 PM 73.4 °F - 71.6 °F 94% 30.09 in 10.0 mi Calm Calm - N/A   Scattered Clouds
11:15 PM 73.4 °F - 71.6 °F 94% 30.09 in 10.0 mi Calm Calm - N/A Thunderstorm Scattered Clouds
11:35 PM 73.4 °F - 71.6 °F 94% 30.09 in 10.0 mi Calm Calm - N/A   Scattered Clouds
11:55 PM 73.4 °F - 71.6 °F 94% 30.09 in 10.0 mi Calm Calm - N/A   Clear